Weather History for Evanston, WY

Change the Weather History Date:

Wednesday, February 27, 2013

  Actual Average Record
Temperature  
Mean Temperature 14 °F 25 °F  
Max Temperature 25 °F 34 °F 45 °F (2006)
Min Temperature 2 °F 17 °F 2 °F (2013)
Degree Days  
Heating Degree Days 51 40  
Month to date heating degree days 1196 1138  
Since 1 July heating degree days 5551 5967  
Cooling Degree Days 0 0  
Month to date cooling degree days 0 0  
Year to date cooling degree days 0 0  
Moisture  
Dew Point 5 °F    
Average Humidity 71    
Maximum Humidity 91    
Minimum Humidity 50    
Precipitation  
Precipitation 0.00 in 0.02 in 0.01 in (2003)
Month to date precipitation 0.36 0.59  
Year to date precipitation 0.47 1.13  
Sea Level Pressure  
Sea Level Pressure 30.43 in    
Wind  
Wind Speed 7 mph (SW)    
Max Wind Speed 15 mph    
Max Gust Speed 18 mph    
Visibility 9 miles    
Events      
T = Trace of Precipitation, MM = Missing Value Source: NWS Daily Summary

Daily Weather History Graph

Daily Weather History Graph

Search for Another Location

Airport:

Trip Planner

Search our weather history database for the weather conditions in past years. The results will help you decide how hot, cold, wet, or windy it might be!

Date:

Astronomy

Feb. 27, 2013 Rise Set
Actual Time 7:01 AM MST 6:12 PM MST
Civil Twilight 6:33 AM MST 6:40 PM MST
Nautical Twilight 6:01 AM MST 7:12 PM MST
Astronomical Twilight 5:29 AM MST 7:44 PM MST
Moon 8:40 PM MST (2/27) 7:36 AM MST (2/27)
Length of Visible Light 12h 07m
Length of Day
11h 11m
Waning Gibbous, 96% of the Moon is Illuminated
Feb 27
Waning Gibbous
Mar 4
Last Quarter
Mar 11
New
Mar 19
First Quarter
Mar 27
Full

Hourly Weather History & Observations

Time (MST) Temp. Windchill Dew Point Humidity Pressure Visibility Wind Dir Wind Speed Gust Speed Precip Events Conditions
1:53 AM 10.0 °F - 5.0 °F 80% 30.38 in 10.0 mi Calm Calm - N/A   Clear
2:53 AM 9.0 °F - 3.9 °F 80% 30.40 in 10.0 mi Calm Calm - N/A   Clear
3:53 AM 3.9 °F -6.9 °F 1.0 °F 88% 30.43 in 10.0 mi South 5.8 mph - N/A   Clear
4:53 AM 7.0 °F -3.3 °F 3.0 °F 84% 30.43 in 10.0 mi South 5.8 mph - N/A   Clear
5:53 AM 6.1 °F -2.8 °F 1.9 °F 83% 30.47 in 10.0 mi SSW 4.6 mph - N/A   Clear
6:53 AM 7.0 °F - 3.9 °F 87% 30.47 in 10.0 mi Calm Calm - N/A   Clear
7:48 AM 6.8 °F - 3.2 °F 85% 30.26 in 9.0 mi Calm Calm - N/A   Scattered Clouds
7:53 AM 8.1 °F 1.4 °F 3.9 °F 83% 30.48 in 3.0 mi SSW 3.5 mph - N/A   Mostly Cloudy
7:59 AM 8.6 °F - 3.2 °F 79% 30.26 in 1.8 mi Calm Calm - N/A   Mostly Cloudy
8:08 AM 8.6 °F 2.0 °F 3.2 °F 79% 30.26 in 2.5 mi South 3.5 mph - N/A   Overcast
8:15 AM 6.8 °F -0.1 °F 3.2 °F 85% 30.26 in 6.0 mi South 3.5 mph - N/A   Mostly Cloudy
8:33 AM 8.6 °F 2.0 °F 5.0 °F 85% 30.27 in 10.0 mi SSW 3.5 mph - N/A   Scattered Clouds
8:53 AM 9.0 °F 2.4 °F 6.1 °F 88% 30.50 in 10.0 mi SSW 3.5 mph - N/A   Clear
10:53 AM 14.0 °F 3.9 °F 8.1 °F 77% 30.51 in 10.0 mi SSW 6.9 mph - N/A   Clear
11:53 AM 19.0 °F 7.5 °F 9.0 °F 65% 30.48 in 10.0 mi SSW 10.4 mph - N/A   Clear
1:53 PM 23.0 °F 11.7 °F 9.0 °F 55% 30.45 in 10.0 mi WSW 11.5 mph - N/A   Scattered Clouds
2:53 PM 24.1 °F 13.7 °F 9.0 °F 53% 30.44 in 10.0 mi WSW 10.4 mph - N/A   Clear
3:53 PM 25.0 °F 13.6 °F 8.1 °F 49% 30.46 in 10.0 mi SW 12.7 mph - N/A   Clear
4:53 PM 24.1 °F 13.7 °F 8.1 °F 51% 30.46 in 10.0 mi WSW 10.4 mph - N/A   Clear
5:53 PM 19.0 °F 9.0 °F 7.0 °F 59% 30.48 in 10.0 mi WSW 8.1 mph - N/A   Clear
6:53 PM 15.1 °F 1.1 °F 5.0 °F 64% 30.51 in 10.0 mi WSW 12.7 mph - N/A   Clear
7:53 PM 12.0 °F -0.4 °F 3.9 °F 70% 30.52 in 10.0 mi SW 9.2 mph - N/A   Clear
8:53 PM 12.0 °F -1.3 °F 3.9 °F 70% 30.52 in 10.0 mi SW 10.4 mph - N/A   Clear
9:53 PM 12.9 °F 3.8 °F 5.0 °F 71% 30.52 in 10.0 mi SSW 5.8 mph - N/A   Clear
10:53 PM 12.0 °F 1.5 °F 6.1 °F 77% 30.53 in 10.0 mi SW 6.9 mph - N/A   Mostly Cloudy
11:53 PM 12.0 °F -0.4 °F 5.0 °F 73% 30.49 in 10.0 mi SSW 9.2 mph - N/A   Scattered Clouds